User: anonymous
Location: ActonStarParty
(42.4766°N, 71.4538°W)
Time: 19:55:28
(UTC-04:00)
Language:

Cosmos 1300 - Orbit

View from above orbital plane
View from above orbital plane
View from above satellite
View from above satellite

Ground track
Ground track

The orbit data is extracted from the following two-line orbital elements,

1 12785U 81082A   14114.18817382  .00006096  00000-0  36591-3 0  6963
2 12785 082.5051 126.3550 0000781 131.4588 301.1115 15.10757653777771
Epoch (UTC): 24 April 2014 04:30:58
Eccentricity: 0.0000781
inclination: 82.5051°
perigee height: 533 km
apogee height: 534 km
right ascension of ascending node: 126.3550°
argument of perigee: 131.4588°
revolutions per day: 15.10757653
mean anomaly at epoch: 301.1115°
orbit number at epoch: 77777

The dashed part of the orbit path shows where the satellite is in the earth's shadow,  

DLR